Weather History for Seattle, WA

Change the Weather History Date:

Sunday, November 5, 2006

  Actual Average Record
Temperature  
Mean Temperature 55 °F 48 °F  
Max Temperature 58 °F 53 °F 65 °F (1949)
Min Temperature 51 °F 42 °F 31 °F (1961)
Degree Days  
Heating Degree Days 10 17  
Month to date heating degree days 70 84  
Since 1 July heating degree days 632 681  
Cooling Degree Days 0 0  
Month to date cooling degree days 0 0  
Year to date cooling degree days 270 189  
Growing Degree Days 4 (Base 50)    
Moisture  
Dew Point 51 °F    
Average Humidity 90    
Maximum Humidity 100    
Minimum Humidity 80    
Precipitation  
Precipitation 0.87 in 0.20 in 1.01 in (1988)
Month to date precipitation 4.28 0.98  
Year to date precipitation 29.77 26.55  
Snow  
Snow 0.00 in - T in (1973)
Month to date snowfall  
Since 1 July snowfall  
Snow Depth -    
Sea Level Pressure  
Sea Level Pressure 29.96 in    
Wind  
Wind Speed 9 mph (South)    
Max Wind Speed 23 mph    
Max Gust Speed 29 mph    
Visibility 7 miles    
Events Rain    
T = Trace of Precipitation, MM = Missing Value Source: NWS Daily Summary

Daily Weather History Graph

Daily Weather History Graph

Search for Another Location

Airport:

Trip Planner

Search our weather history database for the weather conditions in past years. The results will help you decide how hot, cold, wet, or windy it might be!

Date:

Astronomy

Nov. 05, 2006 Rise Set
Actual Time 6:59 AM PST 4:45 PM PST
Civil Twilight 6:26 AM PST 5:18 PM PST
Nautical Twilight 5:49 AM PST 5:54 PM PST
Astronomical Twilight 5:14 AM PST 6:30 PM PST
Moon 4:31 PM PST (11/5) 7:24 AM PST (11/5)
Length of Visible Light 10h 51m
Length of Day
9h 46m
Full, 100% of the Moon is Illuminated
Nov 5
Full
Nov 12
Last Quarter
Nov 20
New
Nov 27
First Quarter
Dec 4
Full

Hourly Weather History & Observations

Time (PST) Temp. Dew Point Humidity Pressure Visibility Wind Dir Wind Speed Gust Speed Precip Events Conditions
12:13 AM 53.6 °F 51.8 °F 94% 29.89 in 5.0 mi SSW 13.8 mph - 0.06 in Rain Rain
12:53 AM 54.0 °F 50.0 °F 86% 29.93 in 10.0 mi SSW 11.5 mph 19.6 mph 0.06 in   Mostly Cloudy
1:53 AM 54.0 °F 50.0 °F 86% 29.95 in 10.0 mi South 15.0 mph - N/A   Mostly Cloudy
2:53 AM 54.0 °F 50.0 °F 86% 29.97 in 10.0 mi SSW 13.8 mph - N/A   Overcast
3:27 AM 53.6 °F 50.0 °F 88% 29.96 in 10.0 mi South 16.1 mph - N/A   Mostly Cloudy
3:53 AM 53.1 °F 48.9 °F 86% 29.99 in 10.0 mi South 13.8 mph - N/A   Scattered Clouds
4:53 AM 53.1 °F 48.9 °F 86% 30.02 in 10.0 mi SSW 15.0 mph - N/A   Scattered Clouds
5:53 AM 52.0 °F 48.9 °F 89% 30.05 in 10.0 mi SSW 12.7 mph - N/A   Scattered Clouds
6:28 AM 51.8 °F 48.2 °F 88% 30.03 in 10.0 mi SSW 11.5 mph - N/A   Mostly Cloudy
6:48 AM 51.8 °F 48.2 °F 88% 30.03 in 10.0 mi SSW 9.2 mph - N/A   Scattered Clouds
6:53 AM 51.1 °F 48.9 °F 92% 30.06 in 10.0 mi South 8.1 mph - N/A   Scattered Clouds
7:53 AM 52.0 °F 51.1 °F 97% 30.06 in 7.0 mi WSW 5.8 mph - 0.00 in   Overcast
8:06 AM 51.8 °F 51.8 °F 100% 30.04 in 7.0 mi WSW 6.9 mph - N/A   Overcast
8:53 AM 53.1 °F 51.1 °F 93% 30.07 in 10.0 mi SW 4.6 mph - N/A   Mostly Cloudy
9:17 AM 53.6 °F 51.8 °F 94% 30.05 in 10.0 mi SSW 5.8 mph - N/A   Mostly Cloudy
9:45 AM 53.6 °F 50.0 °F 88% 30.05 in 10.0 mi South 6.9 mph - N/A   Mostly Cloudy
9:53 AM 54.0 °F 50.0 °F 86% 30.08 in 10.0 mi South 8.1 mph - N/A   Mostly Cloudy
10:46 AM 55.4 °F 50.0 °F 82% 30.05 in 10.0 mi South 10.4 mph - N/A   Overcast
10:53 AM 55.0 °F 51.1 °F 86% 30.07 in 10.0 mi SSW 9.2 mph - N/A   Overcast
11:53 AM 57.0 °F 51.1 °F 81% 30.06 in 10.0 mi SW 11.5 mph - N/A   Overcast
12:53 PM 57.0 °F 51.1 °F 81% 30.05 in 10.0 mi SW 8.1 mph - N/A   Overcast
1:53 PM 55.9 °F 51.1 °F 84% 30.02 in 7.0 mi SSW 3.5 mph - 0.00 in Rain Light Rain
2:53 PM 53.1 °F 50.0 °F 89% 30.01 in 6.0 mi SSW 6.9 mph - 0.03 in Rain Light Rain
3:53 PM 52.0 °F 48.9 °F 89% 29.98 in 6.0 mi SSE 8.1 mph - 0.03 in Rain Light Rain
4:53 PM 52.0 °F 48.9 °F 89% 29.93 in 7.0 mi ESE 6.9 mph - 0.04 in Rain Light Rain
5:26 PM 51.8 °F 48.2 °F 88% 29.89 in 7.0 mi East 3.5 mph - 0.03 in Rain Light Rain
5:46 PM 51.8 °F 50.0 °F 94% 29.90 in 7.0 mi Calm Calm - 0.05 in Rain Light Rain
5:53 PM 51.1 °F 50.0 °F 96% 29.91 in 6.0 mi Calm Calm - 0.06 in Rain Rain
6:53 PM 51.1 °F 51.1 °F 100% 29.88 in 5.0 mi SSE 11.5 mph 18.4 mph 0.11 in Rain Light Rain
7:53 PM 52.0 °F 52.0 °F 100% 29.87 in 5.0 mi SSE 8.1 mph - 0.05 in Rain Light Rain
8:47 PM 53.6 °F 53.6 °F 100% 29.80 in 2.0 mi SSE 11.5 mph - 0.12 in Rain Light Rain
8:53 PM 53.1 °F 53.1 °F 100% 29.83 in 6.0 mi SSE 9.2 mph - 0.12 in Rain Light Rain
9:17 PM 53.6 °F 53.6 °F 100% 29.84 in 4.0 mi Calm Calm - 0.00 in Rain Light Rain
9:28 PM 53.6 °F 53.6 °F 100% 29.83 in 3.0 mi South 3.5 mph - 0.03 in Rain Rain
9:53 PM 54.0 °F 54.0 °F 100% 29.85 in 3.0 mi South 5.8 mph - 0.08 in Rain Light Rain
10:00 PM 53.6 °F 53.6 °F 100% 29.83 in 3.0 mi South 6.9 mph - 0.02 in Rain Light Rain
10:43 PM 55.4 °F 55.4 °F 100% 29.81 in 5.0 mi South 9.2 mph - 0.09 in Rain Light Rain
10:53 PM 55.0 °F 55.0 °F 100% 29.83 in 2.0 mi South 8.1 mph - 0.11 in Rain Rain
11:53 PM 57.9 °F 57.0 °F 97% 29.82 in 2.0 mi SSW 13.8 mph - 0.17 in Rain Light Rain